Location: Middlebury
(44.0153°N, 73.1678°W)
Time: 15:34:25
(UTC-04:00)

UWE-3 - Pass Details

Date: 29 June 2024
Orbit: 566 x 652 km, 97.8° (Epoch: 21 July)

Event Time Altitude Azimuth Distance (km) Brightness Sun altitude
Rises 02:10:14 0° 34° (NNE) 2,830 ? -20.7°
Reaches altitude 10° 02:13:42 10° 65° (ENE) 1,903 ? -20.5°
Maximum altitude 02:15:24 12° 89° (E) 1,747 ? -20.4°
Drops below altitude 10° 02:17:05 10° 114° (ESE) 1,881 ? -20.3°
Enters shadow 02:17:52 - 123° (ESE) 2,029 ? -20.2°
